Location: Unspecified
(17.6330°N, 0.0000°E)
Time: 11:44:23
(UTC+00:00)

Transit 2A - Visible Passes

Search period start: 05 August 2020 00:00
Search period end: 15 August 2020 00:00
Orbit: 591 x 967 km, 66.7° (Epoch: 04 August)

Date Brightness Start Highest point End Pass type
(mag) Time Alt. Az. Time Alt. Az. Time Alt. Az.
05 Aug 5.9 20:03:39 10° SSW 20:08:50 78° ESE 20:14:37 10° NNE visible
06 Aug 6.3 19:29:49 10° S 19:34:46 47° ESE 19:40:17 10° NE visible
06 Aug 8.9 21:15:12 10° W 21:18:13 15° WNW 21:21:23 10° NNW visible
07 Aug 6.9 18:56:21 10° SSE 19:00:47 29° ESE 19:05:37 10° NE visible
07 Aug 8.4 20:39:37 10° WSW 20:43:52 23° WNW 20:48:27 10° N visible
08 Aug 7.7 20:04:42 10° SW 20:09:35 37° WNW 20:14:57 10° N visible
09 Aug 9.3 05:05:42 10° NNE 05:09:37 18° ENE 05:13:20 10° E visible
09 Aug 6.8 19:30:10 10° SW 19:35:22 59° WNW 19:41:09 10° NNE visible
10 Aug 9.8 04:33:49 10° NE 04:35:13 11° ENE 04:36:35 10° ENE visible
10 Aug 6.1 18:55:58 10° SSW 19:01:14 86° ESE 19:07:06 10° NNE visible
11 Aug 9.4 20:07:57 10° W 20:10:40 14° WNW 20:13:31 10° NNW visible
12 Aug 7.5 05:04:52 10° N 05:10:39 46° ENE 05:15:54 10° SE visible
12 Aug 8.9 19:32:10 10° WSW 19:36:18 22° WNW 19:40:45 10° NNW visible
13 Aug 8.4 04:31:13 10° N 04:36:24 29° ENE 04:41:11 10° ESE visible
13 Aug 8.2 18:57:09 10° SW 19:02:00 34° WNW 19:07:19 10° N visible
14 Aug 9.0 03:57:56 10° NNE 04:02:04 19° ENE 04:05:58 10° ESE visible
